STARLINK-38168, 100251

Orbit data source: Space-Track

STARLINK-38168, 100251 is a payload satellite owned by SpaceX/Seattle (US) in SSO that was launched on Sat, 08 Aug 2026 UTC launched from the Air Force Western Test Range (AFWTR). Payload-class satellites include a variety of spacecraft equipped with specific instruments for various scientific and technological missions. These include communications satellites like Starlink; space stations such as the ISS; scientific satellites like the Hubble; Earth observation satellites from companies like Planet Labs, Umbra, and HawkEye 360; GPS; miniature CubeSats for education and research; and military/defense satellites.

Loading next visibility...
Identifier
100251, 2026-181F
Orbit
SSO
Country
Flag of USUS
Related business
Manufacturer
SpaceX/Seattle
Mission
Operational spacecraft
Bus & Motor
STARLINK V2MO, Unknown motor
Mass
575 kg wet, ~530 kg dry
Launch date (UTC)
2026-08-08 (1 month ago)
Launch vehicle
Unknown
Launch site
Air Force Western Test Range (AFWTR)
Object type
Payload
Rocket body
Debris
Shape & HBR
BOX + PAN, 17.7 m
Radar Cross Section
RCS unknown

Expand to show TLE details & history
Last TLE update: 1 day ago

TLE from 1 day ago
0 STARLINK-38168
1 A0251U 26181F   26248.66392933  .00144228  00000-0  95074-3 0  9998
2 A0251  97.2844 291.5079 0001079 139.4977 220.6369 15.75211004  5621
Epoch: 2026-09-05T15:56Z
TLE epoch observation values (Epoch: 2026-09-05T15:56:03.494Z)
Latitude
0.00003°
Longitude
67.72318°
Altitude
347.75 km
Speed
7.7 km/s
True Right ascension
19h 26m 01s
True Declination
0° 00' 00"
Sunlit
Object was in full shadow at epoch
Visualization orbit readout
Latitude
Unknown
Longitude
Unknown
Altitude
Unknown
Speed
Unknown
Apparent Right ascension
Unknown
Apparent Declination
Unknown
Sunlit
N/A
Visualization observer readout
Local Sidereal Time
13:37:42
Azimuth
Unknown
Elevation
Unknown
Doppler factor
Unknown
Orbital elements
Apogee altitude
341.643 km
Perigee altitude
340.193 km
Semi-major axis
6,719.055 km
Eccentricity
0.00011
Inclination
97.2844°
RAAN
291.5079°
Arg. of periapsis
139.4977°
True anomaly
220.62885°
Mean anomaly
220.6369°
Eccentric anomaly
220.63287°
Mean motion
3.94077 °/min
Orbital period
91.35 mins
BSTAR
0.00095074
Loading maneuver chart data...
Computing Atmospheric mass density...
Loading historical data...
Loading historical data...
Loading historical data...
Loading historical data...
Loading historical data...
Loading historical data...
Loading historical data...

Documentation

Showing up to 5 results
|